Other Surface Observations
Issued by NWS

Home | Current Version | Previous Version | Text Only | Print | Product List | Glossary On
Versions: 1 2 3 4 5 6 7 8 9 10 11 12 13 14 15 16 17 18 19 20 21 22 23 24 25 26 27 28 29 30 31 32 33 34 35 36 37 38 39 40 41 42 43 44 45 46 47 48 49 50
000
SXUS52 KTAE 011718
OSOTAE
OSOTAE
North Florida/South Alabama/Southwest Georgia Weather Roundup
National Weather Service Tallahassee Florida
100 PM EDT WED JUL 01 2015

Note: "fair" indicates few or no clouds below 12,000 feet with no
significant weather and/or obstructions to visibility.

!FLZ017-115-028-034-025-011800
...North Florida...

CITY           SKY/WX    TMP DP  RH WIND       PRES   REMARKS
TALLAHASSEE    MOSUNNY   90  71  53 SW8       30.11F HX  96
APALACHICOLA   SUNNY     92  74  55 W12       30.11F HX 101
PERRY          PTSUNNY   87  73  64 SW10      30.13S HX  94
CROSS CITY       N/A     91  71  51 W9        30.13S HX  97
JACKSONVILLE   CLOUDY    85  72  65 W9        30.10F HX  91
$$

!FLZ112-006-005-002-011-011800
...Florida Panhandle...

CITY           SKY/WX    TMP DP  RH WIND       PRES   REMARKS
MARIANNA       SUNNY     88  72  58 W14       30.11F HX  94
BONIFAY        FAIR      87  72  60 VRB5      30.12F HX  93
PANAMA CITY NW FAIR      88  72  58 SW12      30.11F HX  94
TYNDALL AFB    MOSUNNY   86  77  72 W10       30.13F HX  97
TYND DRONE APT NOT AVBL
DE FUNIAK SPR  FAIR      87  70  58 SW9G16    30.13S HX  92
EGLIN AFB      MOSUNNY   87  74  66 SW10      30.13F HX  95
DESTIN         MOSUNNY   86  75  69 SW7       30.14S HX  95
HURLBURT       MOSUNNY   86  72  62 SW10      30.12F HX  92
CRESTVIEW      MOSUNNY   89  69  51 SW12      30.13F HX  93
PENSACOLA      MOSUNNY   87  69  54 SW13      30.12F HX  91
$$

!ALZ063-066-011800
...South Alabama...

CITY           SKY/WX    TMP DP  RH WIND       PRES   REMARKS
DOTHAN         SUNNY     87  70  56 W12G20    30.14F HX  92
OZARK CAIRNS   SUNNY     88  69  53 SW13G21   30.10F HX  92
FT RUCKER HELI SUNNY     88  68  51 W13G20    30.09F HX  91
RUCKER HELI 3  FAIR      88  68  52 SW12G22   30.11F HX  91
RUCKER HELI 2  FAIR      86  71  60 SW10G16   30.09F HX  91
FLORALA APT    SUNNY     88  68  51 SW7       30.12F HX  91
ANDALUSIA      SUNNY     91  67  44 W9        30.11F HX  94
TROY           SUNNY     87  71  58 SW14G26   30.11S HX  93
EUFALA         FAIR      92  71  50 SW8       30.06F HX  98
MOBILE         MOSUNNY   86  69  56 SW8       30.13F HX  90
$$

!GAZ120>161-011800
...Southwest and South Central Georgia...

CITY           SKY/WX    TMP DP  RH WIND       PRES   REMARKS
THOMASVILLE    FAIR      86  72  62 W8        30.12S HX  92
BAINBRIDGE     MOSUNNY   91  73  55 W13       30.11F HX 100
MOODY AFB      CLOUDY    88  71  56 SW13G18   30.09F HX  93
VALDOSTA       MOSUNNY   89  73  59 VRB6      30.11S HX  97
MOULTRIE       SUNNY     88  72  58 W12       30.12S HX  94
BLAKELY        SUNNY     88  72  58 SW9       30.10F HX  94
ALBANY         SUNNY     88  71  57 SW14G20   30.11S HX  94
TIFTON         FAIR      85  68  55 W9G20     30.10S
FITZGERALD     PTSUNNY   87  71  57 SW9       30.11S HX  92
CORDELE        FAIR      88  73  60 SW10      30.09F HX  95
AMERICUS       FAIR      82  70  65 SW13G20   30.09F
HOMERVILLE     FAIR      90  72  55 SW12G18   30.10S HX  96
$$

!GMZ750-755-770-775-011800
...Coastal and Buoy Obs...

STATION/POSITION TIME  TEMP    WIND        PRES    VSBY  WAVE
                       AIR SEA DIR/SP/G                  HT/PER
                 (UTC) (F)     (DEG/KT/KT) (MB)    (MI)  (FT/S)
KEATON BEACH     1700   83     250/  8/  8 1020.6R
CEDAR KEY        1700   86     250/  6/  8 1020.7F
C TOWER          1700   82     270/  4/  5 1020.0F
APALACHICOLA BUO 1650   85 85  200/  4/  4 1019.9F         2/ 5
PANAMA CITY BUOY 1650   83 83  290/ 12/ 14 1020.2F         2/ 4
MOBILE BUOY      1650   83 85  180/  6/  8 1021.0R         1/ 6
ORANGE BCH AL BU 1650   82 83  260/  4/  6 1020.1S         1/ 5
$$



USA.gov is the U.S. government's official web portal to all federal, state and local government web resources and services.